{"data":{"norad_id":64511,"epoch":"2026-09-21T21:17:30.657696Z","epoch_age_seconds":62429,"freshness":"FRESH","line1":"1 64511U 25134M   26264.88716039 -.00000039  00000+0  23933-4 0  9990","line2":"2 64511  51.9007  79.1474 0000836 117.0463 243.0585 14.79931059 69215","mean_motion":14.79931059,"eccentricity":8.36e-5,"inclination_deg":51.9007,"raan_deg":79.1474,"arg_perigee_deg":117.0463,"mean_anomaly_deg":243.0585,"bstar":2.3933e-5,"rev_number":6921,"period_min":97.301829787464,"perigee_km":628.95591449367,"apogee_km":630.12759838175,"semimajor_km":7007.6787564377,"source":"CELESTRAK","updated_at":"2026-09-22T09:00:29.809434Z"}}